Satellite: AUBIESAT Catalog number: 37854 Epoch time: 14316.84132488 Element set: 958 Inclination: 101.7070 deg RA of node: 059.9554 deg Eccentricity: 0.0206791 Arg of perigee: 342.3261 deg Mean anomaly: 134.4081 deg Mean motion: 14.93168034 rev/day Decay rate: 8.702e-05 rev/day^2 Epoch rev: 16487 Checksum: 312
Satellite: HRBE Catalog number: 37855 Epoch time: 14316.81557658 Element set: 980 Inclination: 101.7072 deg RA of node: 059.0321 deg Eccentricity: 0.0209341 Arg of perigee: 344.1800 deg Mean anomaly: 015.2930 deg Mean motion: 14.92334059 rev/day Decay rate: 7.910e-05 rev/day^2 Epoch rev: 16482 Checksum: 288
Satellite: RS-39 Catalog number: 38051 Epoch time: 14288.65876392 Element set: 41 Inclination: 051.5964 deg RA of node: 324.1908 deg Eccentricity: 0.0006422 Arg of perigee: 269.6897 deg Mean anomaly: 186.8903 deg Mean motion: 16.43533377 rev/day Decay rate: 7.0201582e-01 rev/day^2 Epoch rev: 15308 Checksum: 345
Satellite: E-STAR Catalog number: 38079 Epoch time: 14317.12499361 Element set: 63 Inclination: 069.4358 deg RA of node: 310.7276 deg Eccentricity: 0.0227076 Arg of perigee: 135.9926 deg Mean anomaly: 225.9587 deg Mean motion: 15.47961955 rev/day Decay rate: 2.19512e-03 rev/day^2 Epoch rev: 14613 Checksum: 339
Satellite: GOLIAT Catalog number: 38085 Epoch time: 14317.76433880 Element set: 533 Inclination: 069.4394 deg RA of node: 320.4940 deg Eccentricity: 0.0264699 Arg of perigee: 140.9180 deg Mean anomaly: 221.2046 deg Mean motion: 15.37610754 rev/day Decay rate: 1.91097e-03 rev/day^2 Epoch rev: 14593 Checksum: 317
Satellite: HORYU-2 Catalog number: 38340 Epoch time: 14316.81031093 Element set: 18 Inclination: 098.2846 deg RA of node: 276.7202 deg Eccentricity: 0.0013767 Arg of perigee: 066.9572 deg Mean anomaly: 293.3085 deg Mean motion: 14.73128088 rev/day Decay rate: 3.178e-05 rev/day^2 Epoch rev: 13366 Checksum: 310
Satellite: RS-40 Catalog number: 38735 Epoch time: 14317.16298327 Element set: 763 Inclination: 082.4766 deg RA of node: 194.6581 deg Eccentricity: 0.0016491 Arg of perigee: 293.3645 deg Mean anomaly: 066.5699 deg Mean motion: 12.42563014 rev/day Decay rate: 4.0e-07 rev/day^2 Epoch rev: 10408 Checksum: 317
Satellite: PROITERES Catalog number: 38756 Epoch time: 14317.35767094 Element set: 400 Inclination: 098.2241 deg RA of node: 048.0894 deg Eccentricity: 0.0011043 Arg of perigee: 268.1733 deg Mean anomaly: 091.8232 deg Mean motion: 14.75259568 rev/day Decay rate: 1.642e-05 rev/day^2 Epoch rev: 11717 Checksum: 303
Satellite: BEESAT-3 Catalog number: 39134 Epoch time: 14316.98923457 Element set: 767 Inclination: 064.8760 deg RA of node: 026.9667 deg Eccentricity: 0.0036473 Arg of perigee: 283.7935 deg Mean anomaly: 075.9128 deg Mean motion: 15.07463102 rev/day Decay rate: 1.1264e-04 rev/day^2 Epoch rev: 8606 Checksum: 335
Satellite: BEESAT-2 Catalog number: 39136 Epoch time: 14315.46468431 Element set: 747 Inclination: 064.8762 deg RA of node: 032.8076 deg Eccentricity: 0.0036576 Arg of perigee: 284.1423 deg Mean anomaly: 075.5634 deg Mean motion: 15.06523076 rev/day Decay rate: 1.0323e-04 rev/day^2 Epoch rev: 8581 Checksum: 306
Satellite: LO-75 Catalog number: 39382 Epoch time: 14295.69194059 Element set: 487 Inclination: 040.4713 deg RA of node: 030.2705 deg Eccentricity: 0.0002289 Arg of perigee: 341.7175 deg Mean anomaly: 018.4586 deg Mean motion: 16.19795749 rev/day Decay rate: 7.301741e-02 rev/day^2 Epoch rev: 47082 Checksum: 345
Satellite: ZACUBE-1 Catalog number: 39417 Epoch time: 14316.80895155 Element set: 463 Inclination: 097.7599 deg RA of node: 022.2416 deg Eccentricity: 0.0062916 Arg of perigee: 120.3320 deg Mean anomaly: 240.4135 deg Mean motion: 14.78674860 rev/day Decay rate: 1.992e-05 rev/day^2 Epoch rev: 5265 Checksum: 310
Satellite: TRITON-1 Catalog number: 39427 Epoch time: 14316.75168817 Element set: 315 Inclination: 097.7474 deg RA of node: 014.9687 deg Eccentricity: 0.0118516 Arg of perigee: 137.1869 deg Mean anomaly: 223.8641 deg Mean motion: 14.65843392 rev/day Decay rate: 2.012e-05 rev/day^2 Epoch rev: 5215 Checksum: 321
Satellite: DELFIN3XT Catalog number: 39428 Epoch time: 14317.14964502 Element set: 319 Inclination: 097.7468 deg RA of node: 014.1319 deg Eccentricity: 0.0128224 Arg of perigee: 139.2511 deg Mean anomaly: 221.8371 deg Mean motion: 14.64037941 rev/day Decay rate: 4.121e-05 rev/day^2 Epoch rev: 5212 Checksum: 279
Satellite: GOMX-1 Catalog number: 39430 Epoch time: 14317.40156195 Element set: 979 Inclination: 097.7403 deg RA of node: 010.8290 deg Eccentricity: 0.0156142 Arg of perigee: 148.6547 deg Mean anomaly: 212.4082 deg Mean motion: 14.57271131 rev/day Decay rate: 2.793e-05 rev/day^2 Epoch rev: 5194 Checksum: 296
Satellite: MO-76 Catalog number: 39436 Epoch time: 14316.73751955 Element set: 403 Inclination: 097.7660 deg RA of node: 028.3231 deg Eccentricity: 0.0024567 Arg of perigee: 117.1091 deg Mean anomaly: 243.2639 deg Mean motion: 14.94708549 rev/day Decay rate: 2.3281e-04 rev/day^2 Epoch rev: 5302 Checksum: 314
Satellite: LO-74 Catalog number: 39440 Epoch time: 14316.80510277 Element set: 311 Inclination: 097.7554 deg RA of node: 019.3783 deg Eccentricity: 0.0084758 Arg of perigee: 126.0709 deg Mean anomaly: 234.8388 deg Mean motion: 14.73578479 rev/day Decay rate: 1.964e-05 rev/day^2 Epoch rev: 5246 Checksum: 343
Satellite: PUCPSAT-1 Catalog number: 39442 Epoch time: 14316.87202724 Element set: 310 Inclination: 097.7660 deg RA of node: 026.7795 deg Eccentricity: 0.0035521 Arg of perigee: 115.9762 deg Mean anomaly: 244.5120 deg Mean motion: 14.86943296 rev/day Decay rate: 4.623e-05 rev/day^2 Epoch rev: 5171 Checksum: 300
Satellite: SHINAISAT Catalog number: 39572 Epoch time: 14317.81207231 Element set: 409 Inclination: 064.9943 deg RA of node: 235.5383 deg Eccentricity: 0.0012401 Arg of perigee: 267.6708 deg Mean anomaly: 092.3542 deg Mean motion: 16.07313838 rev/day Decay rate: 5.73103e-03 rev/day^2 Epoch rev: 4073 Checksum: 291
Satellite: TEIKYOSAT Catalog number: 39576 Epoch time: 14297.85867254 Element set: 437 Inclination: 064.9818 deg RA of node: 300.5833 deg Eccentricity: 0.0008491 Arg of perigee: 317.3597 deg Mean anomaly: 044.3862 deg Mean motion: 16.45008906 rev/day Decay rate: 9.345816e-02 rev/day^2 Epoch rev: 3769 Checksum: 359
Satellite: CO-77 Catalog number: 39577 Epoch time: 14244.78324653 Element set: 379 Inclination: 064.9920 deg RA of node: 123.7668 deg Eccentricity: 0.0014904 Arg of perigee: 269.7208 deg Mean anomaly: 091.1897 deg Mean motion: 16.43552757 rev/day Decay rate: 1.0543803e-01 rev/day^2 Epoch rev: 2938 Checksum: 363
Satellite: SPROUT Catalog number: 39770 Epoch time: 14317.33951068 Element set: 190 Inclination: 097.8726 deg RA of node: 052.2415 deg Eccentricity: 0.0009921 Arg of perigee: 179.0840 deg Mean anomaly: 181.0384 deg Mean motion: 14.83013339 rev/day Decay rate: 2.330e-05 rev/day^2 Epoch rev: 2563 Checksum: 287
Satellite: POPSAT-HIP1 Catalog number: 40028 Epoch time: 14317.37242705 Element set: 450 Inclination: 097.9699 deg RA of node: 212.2803 deg Eccentricity: 0.0014571 Arg of perigee: 161.0347 deg Mean anomaly: 199.1408 deg Mean motion: 14.85685527 rev/day Decay rate: 3.918e-05 rev/day^2 Epoch rev: 2172 Checksum: 302
Satellite: EO-80 Catalog number: 40032 Epoch time: 14317.26056952 Element set: 438 Inclination: 097.9647 deg RA of node: 212.0431 deg Eccentricity: 0.0012722 Arg of perigee: 156.4434 deg Mean anomaly: 203.7366 deg Mean motion: 14.85436356 rev/day Decay rate: 3.525e-05 rev/day^2 Epoch rev: 2171 Checksum: 286
Satellite: VELOX-1 Catalog number: 40057 Epoch time: 14317.45026488 Element set: 437 Inclination: 098.2384 deg RA of node: 026.9670 deg Eccentricity: 0.0011258 Arg of perigee: 202.2610 deg Mean anomaly: 157.8125 deg Mean motion: 14.74538575 rev/day Decay rate: 3.851e-05 rev/day^2 Epoch rev: 2007 Checksum: 291
Satellite: DAURIA DX 1 Catalog number: 40071 Epoch time: 14317.34003353 Element set: 410 Inclination: 098.3859 deg RA of node: 014.6380 deg Eccentricity: 0.0007913 Arg of perigee: 204.8186 deg Mean anomaly: 155.2659 deg Mean motion: 14.79773769 rev/day Decay rate: 1.808e-05 rev/day^2 Epoch rev: 1886 Checksum: 309
Satellite: UKUBE-1 Catalog number: 40074 Epoch time: 14317.46042223 Element set: 411 Inclination: 098.3868 deg RA of node: 014.9754 deg Eccentricity: 0.0004092 Arg of perigee: 208.1127 deg Mean anomaly: 151.9881 deg Mean motion: 14.80911872 rev/day Decay rate: 3.741e-05 rev/day^2 Epoch rev: 1889 Checksum: 293
Satellite: CHASQUI-1 Catalog number: 40117 Epoch time: 14317.70452830 Element set: 273 Inclination: 051.6402 deg RA of node: 074.8598 deg Eccentricity: 0.0008309 Arg of perigee: 315.6917 deg Mean anomaly: 044.3928 deg Mean motion: 15.64962442 rev/day Decay rate: 1.49373e-03 rev/day^2 Epoch rev: 1354 Checksum: 302
Satellite: HODOYOSHI-1 Catalog number: 40299 Epoch time: 14317.36523505 Element set: 23 Inclination: 097.4745 deg RA of node: 036.7137 deg Eccentricity: 0.0014323 Arg of perigee: 158.6971 deg Mean anomaly: 265.4181 deg Mean motion: 15.16949853 rev/day Decay rate: 7.926e-05 rev/day^2 Epoch rev: 106 Checksum: 306
Satellite: CHUBUSAT-1 Catalog number: 40300 Epoch time: 14317.31342212 Element set: 23 Inclination: 097.4724 deg RA of node: 036.6380 deg Eccentricity: 0.0024206 Arg of perigee: 160.2776 deg Mean anomaly: 286.9480 deg Mean motion: 15.14797550 rev/day Decay rate: 8.549e-05 rev/day^2 Epoch rev: 105 Checksum: 271
Satellite: QSAT-EOS Catalog number: 40301 Epoch time: 14317.32577537 Element set: 25 Inclination: 097.4690 deg RA of node: 036.6197 deg Eccentricity: 0.0035910 Arg of perigee: 160.9120 deg Mean anomaly: 288.8356 deg Mean motion: 15.12205927 rev/day Decay rate: 6.327e-05 rev/day^2 Epoch rev: 106 Checksum: 282
